User: anonymous   Login
Location: Unspecified
(0.0000°N, 0.0000°E)
Time: 21:55:04
(UTC+00:00)
Language:

HODOYOSHI 3 - Orbit

View from above orbital plane
View from above orbital plane
View from above satellite
View from above satellite

Ground track
Ground track

The orbit data is extracted from the following two-line orbital elements,

1 40015U 14033F   17082.88944637 +.00000082 +00000-0 +18431-4 0  9999
2 40015 097.8853 337.9080 0036787 190.6286 169.4152 14.78207629148855
Epoch (UTC): 23 March 2017 21:20:48
Eccentricity: 0.0036787
inclination: 97.8853°
perigee height: 609 km
apogee height: 661 km
right ascension of ascending node: 337.9080°
argument of perigee: 190.6286°
revolutions per day: 14.78207629
mean anomaly at epoch: 169.4152°
orbit number at epoch: 14885

The dashed part of the orbit path shows where the satellite is in the earth's shadow,  

DLR